BAW731 EDDN-EDDV

Flight info

Callsign BAW731
Flight time 0h 37m
Altitude 30000
Route ERETO1G ERETO DCT LONLI M726 LASTO M852 BIRKA/N0431F240 T803 GITEX GITEX1X
Aircraft A319/M-SDE3FGHIRWY/LB1

Departure

Time 2026-05-04 20:45
Airport Nuremberg Airport (EDDN)

Arrival

Time 2026-05-04 21:23
Airport Hannover Airport (EDDV)
Time Latitude Longitude Altitude Speed Heading
2026-05-04 20:11 49.49539 11.07585 1026 ft 0 kts 188°
2026-05-04 20:35 49.49543 11.07586 1026 ft 3 kts 188°
2026-05-04 20:35 49.49570 11.07590 1026 ft 4 kts 178°
2026-05-04 20:35 49.49595 11.07583 1026 ft 4 kts 146°
2026-05-04 20:36 49.49606 11.07563 1025 ft 0 kts 98°
2026-05-04 20:38 49.49606 11.07565 1025 ft 1 kts 98°
2026-05-04 20:38 49.49601 11.07614 1026 ft 9 kts 99°
2026-05-04 20:39 49.49585 11.07766 1027 ft 20 kts 99°
2026-05-04 20:39 49.49569 11.07934 1027 ft 9 kts 95°
2026-05-04 20:39 49.49566 11.07975 1028 ft 6 kts 96°
2026-05-04 20:39 49.49557 11.08065 1028 ft 11 kts 99°
2026-05-04 20:40 49.49545 11.08173 1028 ft 9 kts 99°
2026-05-04 20:40 49.49534 11.08286 1029 ft 12 kts 95°
2026-05-04 20:40 49.49589 11.08358 1032 ft 12 kts 19°
2026-05-04 20:40 49.49614 11.08463 1034 ft 12 kts 97°
2026-05-04 20:41 49.49598 11.08612 1036 ft 16 kts 100°
2026-05-04 20:41 49.49578 11.08803 1037 ft 20 kts 97°
2026-05-04 20:41 49.49556 11.09030 1040 ft 22 kts 98°
2026-05-04 20:41 49.49538 11.09216 1043 ft 12 kts 99°
2026-05-04 20:42 49.49526 11.09340 1045 ft 11 kts 92°
2026-05-04 20:42 49.49565 11.09431 1048 ft 10 kts 54°
2026-05-04 20:42 49.49590 11.09486 1049 ft 0 kts 54°
2026-05-04 20:43 49.49594 11.09493 1049 ft 2 kts 54°
2026-05-04 20:43 49.49612 11.09529 1051 ft 7 kts 49°
2026-05-04 20:43 49.49651 11.09573 1052 ft 7 kts 17°
2026-05-04 20:43 49.49694 11.09548 1052 ft 7 kts 309°
2026-05-04 20:44 49.49704 11.09484 1051 ft 0 kts 279°
2026-05-04 20:44 49.49711 11.09411 1050 ft 28 kts 279°
2026-05-04 20:44 49.49771 11.08793 1040 ft 88 kts 278°
2026-05-04 20:45 49.49842 11.08044 1031 ft 125 kts 278°
2026-05-04 20:45 49.49992 11.06480 1107 ft 165 kts 278°
2026-05-04 20:45 49.50171 11.04699 1662 ft 167 kts 278°
2026-05-04 20:45 49.50345 11.02936 2316 ft 167 kts 278°
2026-05-04 20:46 49.50525 11.01086 2710 ft 187 kts 278°
2026-05-04 20:46 49.50732 10.98952 3090 ft 211 kts 278°
2026-05-04 20:46 49.50962 10.96583 3560 ft 236 kts 278°
2026-05-04 20:46 49.51427 10.94039 4048 ft 262 kts 301°
2026-05-04 20:47 49.52813 10.92184 4829 ft 274 kts 337°
2026-05-04 20:47 49.54689 10.91606 5747 ft 279 kts 360°
2026-05-04 20:47 49.56606 10.92153 6649 ft 284 kts 19°
2026-05-04 20:47 49.58448 10.93194 7524 ft 287 kts 21°
2026-05-04 20:48 49.60328 10.94302 8358 ft 292 kts 21°
2026-05-04 20:48 49.62234 10.95443 9153 ft 296 kts 21°
2026-05-04 20:48 49.64189 10.96618 9922 ft 300 kts 21°
2026-05-04 20:48 49.66167 10.97806 10368 ft 316 kts 21°
2026-05-04 20:49 49.68290 10.99076 10524 ft 338 kts 21°
2026-05-04 20:49 49.70551 11.00425 10651 ft 358 kts 21°
2026-05-04 20:49 49.72936 11.01829 10778 ft 375 kts 19°
2026-05-04 20:49 49.75543 11.02617 10976 ft 388 kts
2026-05-04 20:50 49.78243 11.03075 11393 ft 392 kts
2026-05-04 20:50 49.80990 11.03531 11602 ft 403 kts
2026-05-04 20:50 49.83818 11.03999 11728 ft 414 kts
2026-05-04 20:50 49.86716 11.04477 11857 ft 424 kts
2026-05-04 20:51 49.89669 11.04951 12138 ft 428 kts
2026-05-04 20:51 49.92644 11.04746 12560 ft 429 kts 352°
2026-05-04 20:51 49.95603 11.04165 12929 ft 431 kts 352°
2026-05-04 20:51 49.98596 11.03571 13161 ft 435 kts 352°
2026-05-04 20:52 50.01599 11.02970 13503 ft 435 kts 352°
2026-05-04 20:52 50.04607 11.02374 13866 ft 435 kts 352°
2026-05-04 20:52 50.07608 11.01775 14221 ft 435 kts 352°
2026-05-04 20:52 50.10612 11.01171 14565 ft 435 kts 352°
2026-05-04 20:53 50.13627 11.00560 14712 ft 440 kts 352°
2026-05-04 20:53 50.16672 10.99938 14838 ft 444 kts 352°
2026-05-04 20:53 50.19748 10.99313 14970 ft 447 kts 352°
2026-05-04 20:53 50.22840 10.98689 15159 ft 448 kts 352°
2026-05-04 20:54 50.25938 10.98063 15288 ft 451 kts 352°
2026-05-04 20:54 50.29051 10.97434 15414 ft 453 kts 352°
2026-05-04 20:54 50.32184 10.96802 15545 ft 454 kts 352°
2026-05-04 20:54 50.35316 10.96169 15707 ft 454 kts 352°
2026-05-04 20:55 50.38454 10.95529 15886 ft 454 kts 352°
2026-05-04 20:55 50.41588 10.94889 16044 ft 455 kts 352°
2026-05-04 20:55 50.44733 10.94247 16169 ft 456 kts 352°
2026-05-04 20:55 50.47880 10.93577 16295 ft 457 kts 351°
2026-05-04 20:56 50.51026 10.92818 16420 ft 458 kts 350°
2026-05-04 20:56 50.54175 10.91987 16547 ft 460 kts 350°
2026-05-04 20:56 50.57288 10.91126 16699 ft 460 kts 349°
2026-05-04 20:56 50.60483 10.90233 16904 ft 461 kts 349°
2026-05-04 20:57 50.63639 10.89367 17148 ft 461 kts 350°
2026-05-04 20:57 50.66762 10.88530 17396 ft 461 kts 350°
2026-05-04 20:57 50.69962 10.87689 17649 ft 460 kts 350°
2026-05-04 20:57 50.73117 10.86873 17630 ft 459 kts 350°
2026-05-04 20:58 50.76295 10.86054 17101 ft 465 kts 350°
2026-05-04 20:58 50.79443 10.85230 16851 ft 460 kts 350°
2026-05-04 20:58 50.82584 10.84396 16601 ft 455 kts 350°
2026-05-04 20:58 50.85693 10.83563 16351 ft 452 kts 350°
2026-05-04 20:59 50.88829 10.82720 16098 ft 450 kts 350°
2026-05-04 20:59 50.91871 10.81902 15851 ft 448 kts 350°
2026-05-04 20:59 50.94975 10.81068 15598 ft 446 kts 350°
2026-05-04 20:59 50.98028 10.80247 15348 ft 444 kts 350°
2026-05-04 21:00 51.01077 10.79431 15097 ft 443 kts 350°
2026-05-04 21:00 51.04110 10.78619 14847 ft 441 kts 350°
2026-05-04 21:00 51.07086 10.77827 14600 ft 439 kts 350°
2026-05-04 21:00 51.10125 10.77020 14347 ft 437 kts 350°
2026-05-04 21:01 51.13119 10.76222 14096 ft 435 kts 350°
2026-05-04 21:01 51.16100 10.75422 13846 ft 433 kts 350°
2026-05-04 21:01 51.19065 10.74620 13595 ft 431 kts 350°
2026-05-04 21:01 51.22016 10.73817 13345 ft 429 kts 350°
2026-05-04 21:02 51.24955 10.73015 13095 ft 427 kts 350°
2026-05-04 21:02 51.27877 10.72220 12845 ft 426 kts 350°
2026-05-04 21:02 51.30790 10.71431 12594 ft 424 kts 350°
2026-05-04 21:02 51.33695 10.70645 12344 ft 422 kts 350°
2026-05-04 21:03 51.36547 10.69875 12097 ft 421 kts 350°
2026-05-04 21:03 51.39461 10.69086 11843 ft 419 kts 350°
2026-05-04 21:03 51.42332 10.68306 11593 ft 417 kts 350°
2026-05-04 21:03 51.45179 10.67530 11343 ft 415 kts 350°
2026-05-04 21:04 51.47978 10.66764 11099 ft 411 kts 350°
2026-05-04 21:04 51.50739 10.66008 10851 ft 398 kts 349°
2026-05-04 21:04 51.53451 10.65266 10600 ft 394 kts 349°
2026-05-04 21:04 51.56203 10.64510 10344 ft 392 kts 349°
2026-05-04 21:05 51.58851 10.63782 10097 ft 391 kts 349°
2026-05-04 21:05 51.61498 10.63054 9888 ft 377 kts 349°
2026-05-04 21:05 51.64019 10.62363 9765 ft 358 kts 348°
2026-05-04 21:05 51.66409 10.61708 9638 ft 340 kts 348°
2026-05-04 21:06 51.68754 10.61067 9508 ft 326 kts 348°
2026-05-04 21:06 51.70915 10.60477 9391 ft 313 kts 348°
2026-05-04 21:06 51.73027 10.59894 9257 ft 303 kts 348°
2026-05-04 21:06 51.75077 10.59323 9134 ft 295 kts 348°
2026-05-04 21:07 51.77073 10.58768 9008 ft 287 kts 348°
2026-05-04 21:07 51.79017 10.58225 8882 ft 281 kts 348°
2026-05-04 21:07 51.80920 10.57694 8757 ft 274 kts 348°
2026-05-04 21:07 51.82806 10.57171 8632 ft 269 kts 348°
2026-05-04 21:08 51.84634 10.56664 8502 ft 262 kts 348°
2026-05-04 21:08 51.86400 10.56171 8372 ft 253 kts 348°
2026-05-04 21:08 51.88100 10.55695 8258 ft 251 kts 348°
2026-05-04 21:08 51.89940 10.55174 8136 ft 280 kts 348°
2026-05-04 21:09 51.91905 10.54624 8003 ft 284 kts 348°
2026-05-04 21:09 51.93856 10.54081 7878 ft 284 kts 348°
2026-05-04 21:09 51.95806 10.53544 7752 ft 284 kts 348°
2026-05-04 21:09 51.97738 10.52911 7625 ft 283 kts 341°
2026-05-04 21:10 51.99508 10.51578 7499 ft 279 kts 325°
2026-05-04 21:10 52.00983 10.49564 7375 ft 276 kts 310°
2026-05-04 21:10 52.02107 10.47051 7250 ft 275 kts 301°
2026-05-04 21:10 52.03139 10.44439 7124 ft 275 kts 301°
2026-05-04 21:11 52.04298 10.41982 6993 ft 275 kts 316°
2026-05-04 21:11 52.05836 10.40125 6871 ft 276 kts 323°
2026-05-04 21:11 52.07410 10.38338 6748 ft 277 kts 323°
2026-05-04 21:11 52.08990 10.36547 6620 ft 276 kts 323°
2026-05-04 21:12 52.10565 10.34764 6495 ft 275 kts 323°
2026-05-04 21:12 52.12131 10.32988 6368 ft 274 kts 323°
2026-05-04 21:12 52.13687 10.31222 6245 ft 274 kts 323°
2026-05-04 21:12 52.15230 10.29472 6119 ft 273 kts 323°
2026-05-04 21:13 52.16801 10.27689 5991 ft 272 kts 323°
2026-05-04 21:13 52.18353 10.25921 5864 ft 273 kts 323°
2026-05-04 21:13 52.19907 10.24150 5735 ft 272 kts 323°
2026-05-04 21:13 52.21457 10.22381 5611 ft 274 kts 324°
2026-05-04 21:14 52.23043 10.20567 5488 ft 281 kts 324°
2026-05-04 21:14 52.24648 10.18729 5363 ft 282 kts 324°
2026-05-04 21:14 52.26254 10.16896 5238 ft 281 kts 324°
2026-05-04 21:14 52.27853 10.15067 5113 ft 281 kts 324°
2026-05-04 21:15 52.29451 10.13232 4987 ft 280 kts 324°
2026-05-04 21:15 52.31019 10.11432 4862 ft 277 kts 324°
2026-05-04 21:15 52.32569 10.09653 4818 ft 265 kts 324°
2026-05-04 21:15 52.34084 10.07914 4690 ft 260 kts 324°
2026-05-04 21:16 52.35546 10.06234 4564 ft 254 kts 324°
2026-05-04 21:16 52.36975 10.04591 4448 ft 246 kts 324°
2026-05-04 21:16 52.38310 10.03058 4337 ft 230 kts 324°
2026-05-04 21:16 52.39573 10.01603 4208 ft 214 kts 324°
2026-05-04 21:17 52.40752 10.00243 4132 ft 200 kts 324°
2026-05-04 21:17 52.41860 9.98960 3990 ft 190 kts 324°
2026-05-04 21:17 52.42910 9.97745 3859 ft 180 kts 324°
2026-05-04 21:17 52.43921 9.96578 3673 ft 176 kts 324°
2026-05-04 21:18 52.44913 9.95425 3420 ft 175 kts 322°
2026-05-04 21:18 52.45712 9.93895 3061 ft 178 kts 297°
2026-05-04 21:18 52.46048 9.92043 2812 ft 162 kts 275°
2026-05-04 21:18 52.46100 9.90276 2595 ft 148 kts 272°
2026-05-04 21:19 52.46151 9.88652 2403 ft 138 kts 272°
2026-05-04 21:19 52.46197 9.87118 2224 ft 133 kts 272°
2026-05-04 21:19 52.46242 9.85621 2053 ft 130 kts 272°
2026-05-04 21:19 52.46286 9.84143 1883 ft 129 kts 271°
2026-05-04 21:20 52.46329 9.82673 1713 ft 129 kts 271°
2026-05-04 21:20 52.46372 9.81208 1542 ft 128 kts 271°
2026-05-04 21:20 52.46414 9.79748 1371 ft 128 kts 271°
2026-05-04 21:20 52.46456 9.78292 1201 ft 128 kts 271°
2026-05-04 21:21 52.46498 9.76840 1032 ft 127 kts 271°
2026-05-04 21:21 52.46540 9.75395 864 ft 127 kts 271°
2026-05-04 21:21 52.46581 9.73954 695 ft 126 kts 271°
2026-05-04 21:21 52.46621 9.72527 531 ft 126 kts 271°
2026-05-04 21:22 52.46649 9.71556 417 ft 126 kts 271°
2026-05-04 21:22 52.46689 9.70125 249 ft 125 kts 271°
2026-05-04 21:22 52.46722 9.68793 175 ft 108 kts 272°
2026-05-04 21:22 52.46746 9.67812 175 ft 57 kts 273°
2026-05-04 21:23 52.46761 9.67450 174 ft 10 kts 275°
2026-05-04 21:23 52.46763 9.67302 175 ft 17 kts 266°
2026-05-04 21:23 52.46731 9.67057 176 ft 27 kts 257°
2026-05-04 21:23 52.46685 9.66755 177 ft 18 kts 250°
2026-05-04 21:24 52.46582 9.66683 178 ft 18 kts 162°
2026-05-04 21:24 52.46559 9.66851 178 ft 17 kts 93°
2026-05-04 21:24 52.46553 9.67053 178 ft 19 kts 94°
2026-05-04 21:24 52.46549 9.67284 178 ft 21 kts 88°
2026-05-04 21:25 52.46539 9.67539 178 ft 24 kts 95°
2026-05-04 21:25 52.46530 9.67818 178 ft 26 kts 93°
2026-05-04 21:25 52.46522 9.68107 178 ft 20 kts 97°
2026-05-04 21:25 52.46430 9.68278 178 ft 21 kts 146°
2026-05-04 21:26 52.46310 9.68436 179 ft 23 kts 143°
2026-05-04 21:26 52.46173 9.68603 179 ft 26 kts 141°
2026-05-04 21:26 52.46036 9.68780 179 ft 19 kts 142°
2026-05-04 21:26 52.45946 9.68892 179 ft 16 kts 142°
2026-05-04 21:27 52.45872 9.68984 179 ft 12 kts 144°
2026-05-04 21:27 52.45815 9.69054 179 ft 10 kts 142°
2026-05-04 21:27 52.45769 9.69129 179 ft 9 kts 112°
2026-05-04 21:27 52.45765 9.69152 179 ft 5 kts 98°
2026-05-04 21:28 52.45762 9.69236 179 ft 6 kts 93°
2026-05-04 21:28 52.45760 9.69305 179 ft 6 kts 94°
2026-05-04 21:28 52.45758 9.69366 179 ft 6 kts 92°
2026-05-04 21:28 52.45749 9.69436 179 ft 6 kts 116°
2026-05-04 21:29 52.45725 9.69474 179 ft 4 kts 147°
2026-05-04 21:29 52.45698 9.69500 179 ft 5 kts 149°
2026-05-04 21:29 52.45680 9.69553 179 ft 5 kts 102°
2026-05-04 21:29 52.45697 9.69596 179 ft 4 kts 41°
2026-05-04 21:30 52.45722 9.69621 179 ft 4 kts 26°
2026-05-04 21:30 52.45742 9.69637 179 ft 0 kts 26°